COSMOS 1823 DEB, 18747

Orbit data source: Space-Track

COSMOS 1823 DEB, 18747 is space debris in LEO originally from a launch on Fri, 20 Feb 1987 UTC launched from the Plesetsk Missile And Space Complex (PKMTR). Debris objects in space refer to the collection of defunct objects orbiting the Earth. Examples of debris include non-operational satellites, rocket bodies, and fragments generated from explosions, collisions, or faulty payload assembly.

Loading next visibility...
Identifier
18747, 1987-020AA
Orbit
LEO
Country
Flag of CISCIS
Related business
Manufacturer
Unknown
Mission
Spacecraft
Bus & Motor
Unknown
Mass
Unknown
Launch date (UTC)
1987-02-20 (39 years ago)
Launch vehicle
Unknown
Launch site
Plesetsk Missile And Space Complex (PKMTR)
Object type
Payload
Rocket body
Debris
Shape & HBR
Unknown shape, 0.1 m
Radar Cross Section
Medium (>0.1 m² and <1 m²)

Expand to show TLE details & history
Last TLE update: 3 days ago

TLE from 3 days ago
0 COSMOS 1823 DEB
1 18747U 87020AA  26170.40409115 -.00000028  00000-0 -77473-4 0  9998
2 18747  73.6244 156.6466 0042068 297.1386 215.3484 12.38770256740891
Epoch: 2026-06-19T09:41Z
TLE epoch observation values (Epoch: 2026-06-19T09:41:53.475Z)
Latitude
26.61136°
Longitude
-84.88436°
Altitude
1,541.664 km
Speed
7.086 km/s
True Right ascension
21h 52m 53s
True Declination
26° 29' 15"
Sunlit
Object was in daylight at epoch
Visualization orbit readout
Latitude
Unknown
Longitude
Unknown
Altitude
Unknown
Speed
Unknown
Apparent Right ascension
Unknown
Apparent Declination
Unknown
Sunlit
N/A
Visualization observer readout
Local Sidereal Time
06:34:07
Azimuth
Unknown
Elevation
Unknown
Doppler factor
Unknown
Orbital elements
Apogee altitude
1,542.883 km
Perigee altitude
1,476.518 km
Semi-major axis
7,887.837 km
Eccentricity
0.00421
Inclination
73.6244°
RAAN
156.6466°
Arg. of periapsis
297.1386°
True anomaly
215.0707°
Mean anomaly
215.3484°
Eccentric anomaly
215.20943°
Mean motion
3.09818 °/min
Orbital period
116.2 mins
BSTAR
-0.000077473
Loading maneuver chart data...
Computing Atmospheric mass density...

Documentation

Showing up to 5 results
|